GFSMA_sfc_wetblb_216.txt.gz
Wetbulb
68.19 69.10 69.01 69.16 68.03 67.65 68.28 66.11 68.34 68.83 68.32 68.26 68.09 66.97 66.98 66.92 66.42 66.21 66.63 69.16 69.33 69.14 68.10 67.72 66.88 65.85 64.82 64.57 64.73 64.97 64.70 64.21 64.46 65.01 65.63 64.90 64.38 64.85 64.91 65.09 65.59 65.66 65.52
66.20 67.02 67.25 68.29 68.43 67.60 67.38 67.15 67.95 68.04 67.05 66.96 65.48 64.77 66.81 66.62 66.05 65.68 66.38 67.02 68.89 69.25 68.54 68.15 67.35 66.60 65.34 64.21 63.86 64.34 63.96 63.94 63.88 64.20 64.55 64.54 64.01 64.46 64.25 64.73 65.03 65.14 64.93
62.50 63.76 64.74 65.11 66.95 68.56 67.45 66.66 67.42 66.62 66.18 66.28 65.95 64.89 65.91 65.84 66.05 66.04 65.91 65.87 66.62 67.89 68.31 68.13 67.26 66.75 65.72 64.80 63.62 63.73 63.38 63.41 63.56 63.85 63.76 63.93 64.16 64.15 64.02 64.20 64.81 63.98 63.56
60.16 60.30 61.94 63.85 65.70 66.78 67.56 65.95 65.71 64.76 64.84 65.43 64.93 64.99 65.74 65.70 66.12 66.45 66.90 65.59 64.67 64.21 66.92 67.82 67.41 66.86 66.08 65.13 63.77 63.06 63.26 62.96 63.22 63.51 63.53 63.35 63.59 63.94 63.77 63.65 64.13 63.59 63.09
56.35 56.07 59.01 60.39 62.90 64.33 65.44 66.39 65.37 65.52 63.69 63.69 64.39 63.86 64.88 64.99 64.79 65.90 66.14 65.37 64.37 63.76 63.47 66.64 66.94 66.45 65.35 65.30 64.55 63.60 62.79 62.92 62.62 62.74 62.93 63.00 63.10 63.21 63.67 63.41 63.60 63.16 62.82
55.62 54.87 55.93 57.99 59.77 60.10 62.32 64.29 64.09 64.99 64.82 62.64 64.53 63.41 63.42 63.99 63.81 63.76 64.58 65.15 64.56 64.39 64.03 63.53 63.28 64.00 64.87 65.22 64.65 64.02 63.24 63.04 62.78 62.60 62.54 62.90 63.29 62.88 63.40 63.14 63.09 62.75 62.45
54.57 54.40 54.12 55.06 57.81 59.11 59.36 61.52 63.11 63.08 62.80 63.24 60.23 60.54 61.53 62.25 61.84 62.79 63.73 64.12 64.06 63.87 63.53 63.37 62.97 62.68 62.87 63.78 63.72 63.56 63.18 63.33 63.48 62.93 63.17 63.14 62.81 62.85 62.87 62.65 62.66 62.36 62.33
52.19 52.96 53.33 54.22 55.54 56.68 58.84 59.57 60.42 61.25 62.49 63.95 60.12 59.63 56.54 58.55 58.62 59.59 62.25 63.56 63.10 63.34 62.84 63.09 62.95 62.87 62.43 61.83 61.01 62.53 62.58 63.15 63.28 63.19 63.23 62.63 62.57 62.27 62.41 62.25 62.37 62.06 61.98
50.32 51.14 51.04 52.25 54.43 55.46 57.29 59.16 59.60 59.99 59.94 61.91 61.96 60.02 55.74 55.27 55.50 56.65 55.77 60.42 61.87 61.49 61.16 61.07 60.45 60.81 61.37 60.83 61.72 60.91 61.58 61.55 62.01 62.61 62.30 62.30 62.19 62.65 62.04 62.25 62.04 61.75 61.40
48.85 50.12 50.77 51.31 51.79 54.01 56.43 57.80 59.77 59.39 59.61 59.41 61.84 63.20 61.66 58.89 55.14 51.23 53.22 53.68 55.83 57.10 58.10 58.13 57.97 58.65 59.32 59.35 60.32 60.76 61.08 61.39 61.40 61.39 61.86 61.98 61.71 61.85 61.95 61.88 61.79 61.65 61.18
47.31 48.32 49.52 49.48 50.27 52.96 55.50 56.54 57.31 58.15 58.80 58.97 59.31 58.98 60.76 60.21 58.09 53.55 49.56 49.62 51.11 51.86 53.39 55.42 56.20 56.87 57.45 58.05 59.29 60.25 61.23 60.82 61.15 61.36 61.67 62.11 62.40 62.08 62.29 62.49 61.89 60.77 60.18
46.15 47.09 48.82 49.47 50.64 52.57 53.13 54.61 56.49 57.06 58.21 58.83 60.51 60.40 59.37 58.18 56.47 53.38 52.02 50.59 47.92 49.18 50.07 51.17 53.16 56.35 57.85 58.19 59.98 60.68 60.66 60.55 60.62 60.42 60.42 60.78 61.08 61.22 61.73 61.51 60.92 60.11 59.65
44.77 45.41 46.75 47.68 49.41 49.71 50.91 51.85 53.91 56.96 57.69 58.41 59.66 60.38 61.00 60.37 59.47 56.13 53.20 50.10 48.33 49.56 48.68 48.44 49.67 55.15 56.59 57.57 58.11 58.98 58.93 58.29 57.90 57.72 57.65 57.83 58.36 58.68 58.78 58.72 58.52 58.22 57.68
44.87 45.73 46.27 47.03 48.53 50.05 50.95 52.18 53.11 54.61 57.32 57.96 58.80 60.30 60.78 60.11 59.14 56.24 53.29 50.19 46.91 46.80 46.98 46.24 47.97 52.72 54.11 54.62 55.34 55.73 54.99 55.98 55.76 55.53 55.41 55.19 54.92 54.98 54.99 54.92 54.27 54.25 53.98
45.30 45.65 45.73 46.40 47.45 50.07 51.59 51.97 52.35 52.85 55.39 57.37 59.19 59.28 60.53 59.93 59.64 57.04 54.89 53.16 49.28 45.00 44.32 44.03 45.46 50.44 51.20 51.28 51.74 50.82 50.77 52.78 52.89 52.57 52.45 52.33 52.21 52.05 52.03 51.85 51.62 51.44 51.40
44.37 44.43 44.95 46.08 48.43 49.67 50.90 51.36 52.56 53.79 54.59 56.29 58.35 59.30 60.17 57.76 57.85 56.27 55.19 55.46 53.69 48.49 42.40 43.82 42.03 47.14 48.29 47.78 48.78 47.51 48.23 49.25 50.08 49.86 49.32 48.93 49.03 48.73 47.85 47.66 47.43 47.20 47.71
43.87 43.95 44.99 45.99 47.64 47.23 48.08 49.57 51.87 53.92 53.68 55.05 57.26 59.25 57.99 58.55 56.58 55.92 55.64 54.28 51.53 48.47 41.98 41.33 42.77 44.46 45.01 44.19 43.94 44.45 45.05 44.48 45.38 47.97 47.07 46.16 45.49 44.88 44.76 44.68 44.64 45.25 45.78
43.87 44.24 44.97 45.73 46.52 47.00 48.59 49.65 51.03 52.65 54.26 55.05 56.71 58.26 58.12 57.08 55.58 55.53 55.19 51.80 49.55 47.05 42.49 39.18 40.58 41.36 41.92 42.84 42.33 41.68 42.28 43.03 43.36 46.06 45.54 45.01 44.13 43.74 43.44 42.96 42.90 44.54 43.96
43.67 44.01 45.32 46.32 46.35 47.04 48.70 50.41 52.29 53.39 55.52 57.39 57.55 57.87 57.07 56.32 55.29 52.29 50.40 48.54 46.78 45.80 43.36 40.46 38.90 41.11 41.36 41.63 40.68 40.74 40.20 38.80 41.29 43.99 44.22 43.92 43.60 43.16 42.56 42.68 43.32 42.73 43.03
43.27 44.12 45.33 46.54 47.66 48.78 49.19 51.29 53.07 54.77 57.64 58.32 57.99 57.36 56.59 55.32 52.21 49.92 47.91 46.14 44.70 42.76 41.42 39.64 38.77 38.93 40.02 40.43 39.37 36.77 35.31 34.72 34.44 38.45 40.80 41.11 41.25 41.60 42.77 43.43 43.49 42.42 43.16
43.77 44.15 45.06 46.24 48.40 48.87 51.14 52.55 55.63 56.72 57.22 56.75 56.50 56.24 55.11 53.50 53.23 50.53 46.66 44.80 43.13 41.41 40.35 38.86 37.78 38.04 37.98 38.65 36.53 35.91 32.96 32.53 31.07 32.32 31.22 32.55 32.38 32.86 38.82 41.59 41.81 42.60 43.50
42.82 43.95 44.97 46.57 47.00 48.50 52.09 55.09 55.51 54.83 54.70 53.80 53.00 53.07 53.45 53.10 52.39 51.22 49.68 47.93 45.08 41.29 39.73 38.82 38.05 37.59 38.25 36.74 35.25 33.20 32.11 29.62 27.03 30.83 28.61 27.93 30.47 29.65 33.45 36.78 40.87 41.11 41.83
41.74 43.28 45.25 45.97 46.45 47.88 51.93 55.22 55.13 53.20 51.50 51.06 50.65 49.79 49.60 50.45 49.83 49.00 50.27 49.50 48.16 47.48 45.46 42.30 39.40 37.44 36.69 33.94 33.10 31.18 29.93 28.88 27.24 29.27 28.27 25.55 27.97 27.92 31.73 35.28 39.72 39.98 40.20
41.30 43.87 44.57 45.64 47.92 50.23 52.27 55.39 53.07 50.86 50.02 49.60 49.21 48.78 48.16 48.05 48.01 46.67 44.39 40.97 39.26 38.83 38.87 38.45 35.77 33.91 33.47 33.82 33.02 31.96 29.82 28.10 28.52 29.22 28.57 24.02 26.35 26.58 29.35 30.14 39.19 39.48 39.34
42.68 43.52 46.98 49.41 49.23 51.58 53.10 51.92 49.81 47.80 46.71 47.09 48.11 48.01 46.23 43.50 45.25 43.83 38.49 37.17 37.43 38.63 43.55 43.87 43.06 42.77 42.20 41.10 36.87 32.06 28.47 27.12 24.39 24.79 27.13 26.01 25.75 26.34 27.25 27.82 30.59 38.39 38.92
43.26 46.78 47.50 48.33 48.76 47.74 49.83 49.49 47.13 45.50 43.72 43.61 43.81 43.85 46.05 43.23 44.67 42.82 36.54 34.97 32.27 31.63 31.40 30.92 30.85 32.99 33.91 35.88 37.58 29.62 28.26 26.32 24.42 23.58 26.23 26.06 25.68 26.33 24.99 27.62 28.32 29.28 29.90

GFSMA_sfc_wetblb_219.txt.gz
Wetbulb
64.87 66.38 66.56 66.35 66.36 66.05 66.36 66.06 65.15 66.41 68.31 68.87 68.69 67.55 66.66 66.12 65.37 65.97 66.73 69.47 70.06 70.19 68.80 68.32 67.63 66.75 65.88 66.17 65.11 64.86 64.16 63.79 63.84 64.41 64.88 64.24 64.20 64.54 64.71 65.25 64.48 64.00 64.24
61.04 62.38 62.30 63.57 64.92 67.12 66.09 64.92 63.28 62.39 64.95 67.70 67.80 67.48 66.86 66.42 66.32 65.67 66.24 68.06 69.20 69.44 69.08 68.80 68.16 67.39 66.32 65.59 65.05 64.59 64.04 63.31 63.68 63.68 63.89 64.18 64.24 64.10 64.03 64.70 64.18 63.68 63.68
55.92 56.51 57.33 60.03 63.32 64.60 66.72 64.65 65.41 65.87 65.96 66.18 65.50 65.08 64.98 66.19 65.95 65.26 65.98 66.06 67.08 68.43 69.13 69.22 68.41 67.84 66.86 65.86 65.14 64.61 63.70 62.99 63.22 63.28 63.39 63.62 63.90 64.17 63.81 64.11 63.77 63.49 63.34
53.95 53.31 53.62 55.75 59.23 62.24 63.41 64.88 64.63 63.61 62.94 63.68 64.34 64.75 65.23 65.00 65.03 65.48 65.49 65.64 66.14 66.37 67.67 68.35 68.46 67.95 67.18 66.30 65.08 64.55 64.11 63.02 62.78 62.68 62.85 63.03 63.29 63.67 63.65 63.92 63.44 63.08 62.68
53.30 53.66 53.46 54.07 55.45 57.78 59.25 61.46 63.16 64.87 63.39 62.50 62.82 63.50 63.88 65.42 65.47 65.64 64.82 64.57 64.63 64.22 64.28 67.36 67.76 67.64 67.15 66.58 65.64 64.76 63.93 63.48 62.54 62.37 62.30 62.66 63.32 63.14 63.29 63.31 62.97 62.48 62.63
51.65 50.78 51.69 52.95 54.12 54.53 57.37 58.52 59.57 61.76 62.98 63.03 63.27 63.25 61.22 62.48 63.52 63.48 64.74 64.64 63.67 63.18 63.44 64.37 64.39 64.52 66.80 66.16 65.90 65.36 64.03 63.53 62.84 63.00 62.53 62.77 63.03 63.21 62.92 62.89 62.60 62.44 62.14
49.05 48.68 49.01 50.28 52.15 52.76 54.43 56.59 57.73 58.59 59.51 61.62 59.82 58.40 58.56 60.78 61.60 61.82 63.10 63.79 63.28 63.57 63.60 63.50 63.52 62.89 63.18 65.89 65.11 65.02 64.43 63.87 63.31 62.62 62.85 62.96 62.65 62.28 62.44 62.38 62.09 62.06 61.75
48.20 48.38 47.84 48.48 48.56 49.55 52.89 54.38 56.91 56.94 58.40 60.58 59.09 57.53 56.67 58.07 58.91 59.45 62.44 63.45 63.05 63.48 62.97 63.04 62.68 61.95 62.41 62.04 62.44 63.79 63.12 62.90 62.61 62.55 62.57 62.18 62.22 61.95 61.97 62.06 61.62 61.61 61.39
47.64 47.49 47.38 46.92 47.96 49.13 50.06 52.24 54.89 56.69 55.62 58.05 59.99 57.84 55.42 54.23 55.68 55.79 56.18 58.03 62.43 62.17 62.37 62.39 62.21 62.13 61.42 60.54 61.43 61.26 61.99 61.67 61.95 62.30 61.88 61.57 61.32 61.92 61.56 61.33 61.44 61.71 61.12
46.24 47.22 46.95 46.59 46.74 47.70 47.73 51.25 55.54 56.06 56.82 55.34 56.97 60.60 58.46 55.92 52.84 51.85 53.50 53.21 56.64 60.56 60.71 60.35 60.11 60.29 60.12 60.35 60.23 60.80 61.29 61.86 61.30 61.45 61.82 61.53 61.18 61.76 61.77 61.62 61.70 60.90 60.49
45.46 46.06 46.19 45.99 46.27 46.72 49.69 51.56 51.27 51.68 54.03 55.73 56.02 56.82 57.51 57.45 54.83 53.65 50.40 50.48 52.85 52.91 54.81 58.51 58.61 58.39 58.85 59.16 59.22 60.59 61.21 61.71 61.76 61.86 62.42 62.38 62.73 62.81 62.59 61.93 61.21 60.40 59.51
44.54 44.98 45.66 45.46 45.80 45.68 48.16 48.23 48.86 49.98 51.91 54.48 56.13 56.77 56.65 55.77 55.56 53.49 51.14 50.38 48.75 49.31 49.78 51.07 56.44 56.92 57.46 58.69 60.04 60.91 61.13 61.16 60.91 60.88 60.71 60.83 61.16 61.05 60.70 60.41 59.59 58.30 57.38
43.01 43.45 43.76 44.02 44.53 45.53 46.33 47.97 47.77 49.22 50.80 53.17 54.66 56.24 57.38 57.55 57.33 54.32 52.35 49.60 47.60 49.75 49.03 49.51 49.44 57.36 58.31 59.02 59.47 59.49 59.37 58.93 58.35 57.90 57.55 57.19 57.12 56.72 56.52 56.48 55.93 55.37 55.18
43.65 43.78 43.27 43.79 44.18 45.13 46.21 46.80 48.59 49.43 50.67 52.55 52.89 55.73 57.04 58.11 57.76 56.84 52.11 49.69 46.86 47.00 46.89 46.49 49.84 54.67 55.37 55.75 56.86 57.08 56.26 56.88 56.15 55.52 55.03 54.21 53.91 53.70 53.51 53.13 52.71 52.54 52.66
44.29 43.97 42.96 43.05 43.92 44.66 46.00 47.65 49.91 49.94 51.32 52.25 52.56 53.87 56.60 57.78 58.67 56.35 55.53 53.40 48.82 44.62 44.72 44.62 46.28 50.43 50.80 51.28 52.14 51.42 51.80 53.76 53.48 52.63 51.94 51.03 50.33 49.88 49.43 49.22 49.06 49.13 48.85
42.12 41.92 42.67 43.26 43.50 44.74 46.07 48.70 48.74 49.44 49.51 52.00 52.63 53.34 54.92 57.67 58.62 56.68 54.80 54.13 52.92 48.95 42.54 44.11 44.01 47.80 48.65 48.61 49.53 48.31 49.09 50.08 50.47 49.26 47.85 47.02 46.79 46.53 46.34 46.45 46.61 46.63 46.46
42.59 42.86 43.08 42.87 43.31 43.83 45.33 46.03 46.08 47.72 48.97 51.23 53.48 53.98 54.52 57.06 57.75 55.84 55.08 54.63 51.84 49.45 42.75 41.81 44.83 44.66 43.96 43.66 44.01 44.84 45.66 45.09 45.13 47.13 46.25 45.51 44.93 44.68 44.44 45.40 45.13 45.05 45.02
42.06 41.91 42.14 42.51 42.88 44.79 44.93 46.39 46.72 48.03 48.97 50.59 51.93 53.07 53.65 56.43 56.39 55.29 54.95 52.14 48.61 47.36 42.76 39.63 41.68 41.68 41.50 42.26 42.07 42.25 43.17 42.99 42.78 45.61 45.58 44.81 44.17 44.28 44.44 43.68 43.68 43.94 43.66
42.24 42.20 42.87 43.02 43.91 44.79 46.10 46.92 47.24 48.20 49.43 51.22 52.78 53.90 54.77 56.37 54.67 54.19 51.46 48.79 46.93 45.28 43.17 40.75 39.44 40.94 40.64 40.75 39.43 39.53 39.37 39.52 40.93 43.53 43.64 43.24 43.89 44.02 43.83 43.38 44.49 43.25 42.77
41.94 42.33 43.34 43.18 44.43 45.76 46.11 46.93 47.74 48.87 49.68 52.54 53.85 55.55 56.85 55.40 53.05 50.41 48.45 47.11 45.00 42.85 41.76 40.21 39.22 38.98 39.16 39.36 37.87 35.65 33.67 33.90 32.43 36.50 39.54 41.20 42.39 43.62 43.66 43.41 44.02 43.68 44.16
41.51 41.73 41.40 42.14 44.36 46.20 46.97 48.48 49.25 50.98 51.48 52.70 56.54 57.28 56.47 54.18 53.64 51.02 46.86 44.55 42.82 41.24 40.36 38.95 38.16 37.86 36.87 36.18 34.67 34.20 31.53 30.52 30.16 30.02 29.33 31.32 32.29 32.41 36.19 39.90 40.74 42.24 42.03
40.43 40.53 41.02 42.02 42.77 46.06 48.88 49.66 50.62 51.64 55.12 54.80 52.70 53.15 53.57 53.74 53.13 51.89 49.74 47.98 44.86 41.19 39.68 38.61 37.74 36.65 37.10 35.48 34.65 32.39 30.01 27.71 24.62 28.59 27.72 26.57 29.22 29.33 31.76 36.34 40.78 40.59 40.62
40.12 40.47 41.26 42.18 43.68 45.43 48.74 50.74 53.34 54.13 52.75 51.84 50.33 49.64 49.46 49.70 48.80 47.98 49.70 49.23 47.90 46.81 44.52 40.66 38.42 37.72 35.51 35.24 33.87 30.08 27.81 27.03 25.60 26.28 27.21 24.83 27.00 27.58 31.21 35.81 40.05 40.07 40.46
40.34 41.11 42.26 44.91 45.01 46.13 49.42 51.83 52.85 50.89 49.97 49.49 49.07 48.09 47.16 46.65 46.73 44.79 41.50 38.96 38.34 38.41 38.13 37.51 35.85 34.79 34.25 34.22 32.77 31.48 28.72 26.08 26.34 26.35 26.30 23.53 25.25 25.86 27.57 28.29 39.04 39.73 40.35
41.03 42.32 47.09 49.09 49.69 48.84 52.02 51.67 49.78 48.29 46.75 46.45 47.11 46.75 44.19 42.32 45.29 44.23 39.25 38.21 38.42 39.17 43.76 43.87 42.74 42.22 41.64 39.94 35.47 30.93 27.87 26.66 23.92 23.46 25.40 25.20 24.51 25.29 25.88 26.47 28.50 38.85 40.32
42.27 47.04 46.40 47.43 49.74 48.85 50.86 49.61 46.64 44.30 42.19 42.00 42.92 43.19 45.33 42.98 44.45 42.65 35.79 32.89 29.34 29.54 29.86 29.46 29.42 31.86 35.34 37.47 37.10 28.00 27.23 24.87 23.29 23.36 25.38 25.48 24.80 25.03 24.68 26.67 27.11 28.05 29.44

GFSMA_sfc_wetblb_225.txt.gz
Wetbulb
48.60 51.31 52.24 53.60 55.16 57.29 58.22 59.97 61.93 63.52 64.04 65.03 66.70 66.62 67.08 66.98 66.72 66.84 66.54 68.21 69.69 70.12 70.83 70.79 69.90 68.91 68.55 67.90 67.41 66.37 65.59 65.00 64.94 64.97 63.56 63.22 62.92 62.87 63.61 63.60 63.47 62.88 63.32
47.11 49.06 50.22 50.82 51.31 53.44 54.72 56.73 57.95 60.72 62.93 63.45 63.66 65.55 66.32 66.54 66.73 66.49 65.89 65.52 68.69 69.65 70.52 71.03 70.17 69.36 68.94 68.23 67.62 66.65 65.74 65.15 64.79 64.54 63.82 63.33 63.33 63.02 62.93 63.02 62.55 62.66 62.77
46.30 47.32 46.64 47.26 49.33 51.58 52.86 54.12 54.86 57.80 60.67 62.66 63.01 64.60 65.18 66.62 66.39 65.89 65.68 65.45 66.46 68.18 69.62 70.72 70.33 69.64 69.20 68.48 67.82 66.85 66.03 65.23 64.92 64.48 63.84 63.22 62.89 63.05 62.58 62.59 62.53 62.55 62.65
46.79 45.08 44.98 45.14 47.61 49.37 50.55 51.31 52.55 54.10 55.58 57.79 59.58 61.74 63.91 65.28 65.46 66.08 65.73 65.63 66.06 67.11 67.98 69.03 70.32 70.10 69.31 68.73 68.04 67.08 66.18 65.47 65.07 64.71 64.15 63.46 63.20 62.83 62.82 62.52 62.47 62.55 62.00
46.90 44.88 44.74 44.66 46.33 46.54 47.36 48.39 49.58 51.82 52.76 53.63 56.38 59.47 61.66 62.79 63.99 65.20 65.77 65.74 65.68 66.04 66.37 67.76 68.72 69.03 69.61 68.97 68.28 67.28 66.42 65.85 65.24 64.88 64.32 63.67 63.45 63.43 63.10 62.53 62.28 62.09 61.77
46.11 45.09 44.76 44.61 45.45 44.68 44.50 45.73 46.79 49.57 50.78 53.14 56.27 57.00 58.92 61.13 62.68 63.44 63.99 65.25 64.99 65.44 65.42 65.84 66.93 67.14 68.68 69.22 68.55 67.86 66.91 66.29 65.51 64.87 64.40 64.11 63.88 63.82 63.56 62.79 62.13 61.56 61.39
45.68 44.68 44.18 44.17 44.80 43.48 42.92 44.69 45.89 46.28 47.52 50.68 53.18 54.07 56.93 60.21 61.29 62.65 64.10 63.98 64.30 64.85 64.84 64.81 65.49 65.94 66.79 68.13 68.24 67.84 67.74 66.97 66.02 65.24 64.69 64.71 64.36 64.02 63.49 62.40 61.59 61.22 61.13
45.41 45.16 43.96 43.79 44.03 42.81 42.21 42.85 43.89 43.76 46.38 50.47 50.82 51.77 50.62 54.62 59.77 61.73 62.58 63.52 63.67 64.13 64.02 63.96 64.40 64.43 65.03 65.45 65.60 66.61 66.51 66.86 66.39 65.22 64.39 64.25 63.74 63.03 62.96 62.04 61.26 61.29 60.77
45.14 45.22 45.08 44.33 43.74 42.56 42.15 42.32 43.32 43.13 45.78 47.91 48.57 51.14 50.66 51.07 54.87 56.64 57.66 59.87 62.44 62.48 62.77 63.17 63.80 63.47 63.61 63.71 64.32 64.50 64.49 65.67 65.51 64.90 64.05 63.66 63.70 63.31 62.42 61.56 61.49 60.90 59.68
44.13 44.88 44.96 44.45 43.91 43.17 42.01 42.80 44.49 43.98 45.04 43.64 45.90 50.53 52.20 52.82 52.38 51.76 54.33 54.65 55.56 59.98 61.53 62.14 62.59 62.89 62.80 62.72 63.13 62.44 63.81 63.92 64.21 63.94 63.92 63.35 62.97 62.13 61.74 62.36 60.08 59.12 58.02
43.25 43.87 44.07 43.83 43.36 43.10 42.36 42.65 42.59 42.92 44.60 44.10 44.57 45.86 47.47 50.79 53.15 53.75 51.46 51.97 53.04 52.08 52.39 53.74 61.71 62.50 62.18 61.97 61.44 61.84 62.95 62.89 63.08 62.87 62.71 62.79 62.18 62.98 61.40 59.94 58.58 57.50 56.48
41.90 42.97 44.01 43.74 43.54 42.96 42.12 42.90 42.90 42.20 42.51 43.85 45.50 46.04 47.38 47.93 50.26 53.22 51.60 51.20 51.51 50.12 51.81 52.39 53.01 59.28 60.98 60.90 60.99 61.44 62.24 61.87 62.25 62.42 62.18 61.55 60.81 59.87 59.04 57.87 56.71 55.63 54.41
39.90 41.05 42.36 42.50 42.50 42.72 42.63 42.66 41.88 41.77 42.48 43.42 44.39 45.16 47.62 49.49 51.56 52.27 53.76 50.15 49.72 49.48 49.90 50.87 51.31 54.53 59.94 60.01 60.05 60.70 61.32 61.49 60.21 58.96 58.10 57.27 56.23 55.60 55.08 54.13 53.14 52.48 51.95
38.87 40.34 41.40 42.06 42.40 42.70 42.68 42.26 41.68 41.51 42.17 43.29 43.48 46.69 47.43 48.22 50.04 51.97 52.84 50.58 47.13 46.86 47.55 46.52 50.37 51.87 57.36 59.49 60.31 60.51 58.75 58.49 57.19 55.97 54.70 53.84 53.11 52.53 51.78 51.00 50.23 49.89 49.81
39.28 39.69 40.37 40.83 41.61 41.85 41.59 41.38 40.83 40.67 42.15 42.97 43.88 47.21 47.47 47.75 49.79 51.85 52.60 53.43 50.24 45.05 45.16 44.89 47.87 51.00 54.44 56.78 56.57 54.68 53.99 54.92 54.09 52.61 51.57 51.05 50.87 50.14 49.62 49.07 48.39 48.04 48.14
38.02 38.51 39.17 39.68 40.44 40.97 41.20 41.03 40.74 41.53 42.04 43.21 46.54 45.53 46.29 48.27 49.92 51.60 52.74 54.43 52.83 49.26 43.08 45.60 46.15 49.03 49.88 49.81 50.86 49.04 49.30 50.21 50.65 50.02 49.27 48.80 48.36 48.30 47.47 46.99 46.54 46.20 46.32
37.66 37.73 38.40 38.96 39.86 40.32 40.88 40.73 40.86 41.33 41.47 42.83 43.56 43.33 44.07 47.37 48.73 50.92 52.96 53.96 52.74 48.75 42.50 43.59 44.90 44.90 44.26 43.74 43.98 44.83 45.53 45.56 46.79 48.94 47.68 46.79 46.56 46.21 45.84 45.51 45.40 45.27 45.56
38.06 37.57 38.18 38.75 39.57 40.43 40.99 40.58 40.47 41.47 42.14 42.28 42.70 44.07 46.60 49.14 50.15 50.95 53.20 54.00 50.74 47.95 44.10 40.34 41.97 41.60 41.44 42.46 42.57 42.31 43.00 44.46 44.96 47.50 46.92 47.46 46.73 45.85 45.88 45.04 44.70 44.39 43.67
37.94 38.69 39.84 38.85 39.41 40.41 40.56 40.89 41.04 41.64 42.69 43.31 45.02 46.42 46.91 48.49 49.68 50.66 52.45 52.42 48.62 47.10 44.27 41.21 39.17 40.41 39.86 39.59 37.50 37.76 38.09 39.12 41.95 45.23 46.79 46.10 45.41 44.84 43.88 43.29 42.64 42.41 43.12
40.97 41.06 40.92 40.77 40.73 40.60 40.61 40.70 40.92 40.99 42.22 44.85 46.40 46.89 47.39 48.57 49.74 49.20 52.23 47.90 46.22 43.81 42.32 39.93 38.46 36.78 35.60 35.84 34.82 32.93 32.13 34.21 33.74 36.51 41.08 42.68 43.17 43.05 42.49 42.42 42.10 41.98 42.52
42.06 41.71 41.28 41.23 41.31 41.30 41.45 41.37 41.96 42.07 43.28 44.47 45.72 46.83 48.66 50.26 52.57 53.52 48.53 45.77 44.10 41.77 40.22 37.99 35.29 33.99 33.06 33.24 31.37 32.16 30.99 31.13 30.49 32.55 32.21 31.97 32.45 31.61 35.25 38.82 40.87 42.74 43.17
41.72 41.85 41.50 41.45 41.00 41.80 44.03 45.23 44.85 43.97 45.38 45.69 45.99 48.19 49.50 51.43 53.12 54.85 51.13 48.85 45.03 41.20 39.38 36.22 34.84 32.80 31.61 31.31 31.74 31.08 30.74 29.60 27.17 30.88 30.28 27.63 27.82 27.54 29.28 33.71 41.64 42.44 42.39
41.16 40.72 40.92 41.26 41.25 42.05 45.49 47.01 47.50 46.31 46.21 46.77 47.86 49.70 50.61 51.59 53.03 51.31 51.19 49.41 47.93 46.40 43.12 38.48 33.95 32.89 31.64 31.93 31.56 30.21 28.92 27.32 26.61 28.07 28.28 24.75 25.96 26.35 27.36 32.22 42.26 42.21 42.02
41.33 41.45 41.71 42.28 42.50 43.68 46.76 48.05 49.07 47.99 47.74 48.51 49.03 47.15 46.28 46.24 46.65 45.03 43.67 42.52 41.97 41.30 39.84 39.09 37.04 35.90 33.63 33.02 32.46 30.49 28.09 25.24 26.03 26.14 25.78 23.32 24.07 24.76 26.45 27.84 39.77 41.52 41.40
43.61 44.99 47.11 45.13 43.48 45.93 49.91 48.71 45.36 43.22 42.73 43.38 44.01 43.40 43.17 43.01 45.87 44.88 40.79 39.85 40.13 41.24 44.73 43.93 42.25 40.96 39.20 37.35 33.98 30.34 27.63 26.95 24.49 24.03 25.20 24.99 23.62 25.11 25.74 26.86 29.25 38.48 40.37
44.04 45.25 45.17 46.60 48.02 46.63 48.21 47.42 45.18 43.46 42.30 42.87 44.14 44.77 46.31 44.96 46.28 44.67 39.66 38.15 36.29 36.75 37.04 36.33 36.09 36.69 36.57 36.35 35.86 28.23 27.08 26.28 24.97 23.53 24.87 24.90 23.81 24.33 28.89 30.64 27.95 30.49 31.44

GFSMA_sfc_wetblb_228.txt.gz
Wetbulb
45.30 47.33 47.47 48.50 49.31 50.87 51.10 51.61 53.57 54.70 57.37 61.33 62.64 63.51 64.90 67.05 66.87 67.33 67.04 68.59 69.78 70.24 70.45 70.89 70.85 70.36 69.57 69.21 68.72 67.88 67.12 66.56 66.40 66.54 65.08 64.39 63.81 63.20 63.26 63.08 62.68 62.25 62.53
44.38 45.36 45.41 45.81 46.26 48.38 49.57 50.79 51.78 52.44 55.20 58.11 60.17 62.37 63.94 65.25 66.90 66.47 66.56 66.59 68.86 69.85 70.37 70.31 70.97 70.80 70.14 69.37 68.74 68.19 67.30 66.53 66.08 65.93 65.50 64.62 64.27 63.88 62.98 63.02 62.62 61.87 62.69
44.32 44.53 43.95 44.02 45.22 47.37 48.47 48.75 48.74 51.44 51.72 54.46 55.58 58.52 61.51 64.55 65.55 65.83 65.75 65.91 66.06 68.15 69.54 70.33 71.19 71.07 70.59 69.95 69.12 68.34 67.46 66.63 66.11 65.75 65.29 64.68 64.27 63.93 63.52 63.07 63.01 62.94 62.25
45.14 44.09 43.58 43.46 44.75 46.08 46.50 46.04 46.46 47.20 49.08 51.32 51.77 53.80 57.52 61.83 63.47 64.63 66.08 66.18 65.62 65.79 67.34 68.81 70.39 71.27 70.79 70.29 69.64 68.57 67.76 66.84 66.16 65.88 65.34 64.66 64.05 63.74 63.92 63.52 63.03 62.92 62.35
45.72 44.09 43.53 43.62 44.21 44.32 44.49 44.48 44.54 45.69 46.84 47.35 49.58 52.64 55.51 58.23 60.85 62.95 63.96 64.98 65.62 65.57 65.96 67.45 68.50 69.33 70.47 70.57 70.13 69.24 67.93 67.16 66.35 65.97 65.54 64.85 64.21 64.13 63.94 63.84 63.29 62.61 62.15
44.93 43.81 43.67 43.46 43.72 43.25 43.11 43.19 43.09 44.99 45.07 46.07 49.18 50.11 52.48 55.07 57.96 60.23 61.96 63.72 65.00 65.10 65.36 65.31 66.53 67.23 69.03 70.27 70.18 69.92 68.64 67.55 66.74 66.12 65.64 65.00 64.58 64.43 64.43 64.06 63.41 62.34 61.47
44.68 43.40 43.35 43.34 43.39 42.52 42.32 42.55 43.01 43.22 42.57 44.86 47.07 48.75 51.52 54.82 57.72 59.12 60.96 62.37 63.27 64.26 64.96 65.40 65.95 66.50 67.19 68.71 69.29 69.59 69.47 68.66 67.17 66.12 65.87 65.33 64.93 64.87 64.48 64.05 62.80 61.77 61.28
43.58 43.60 42.72 43.10 43.05 42.69 41.98 41.60 41.61 41.63 42.68 44.23 45.95 45.55 45.73 49.54 55.14 57.63 60.57 61.87 62.74 63.77 64.21 65.13 65.40 65.45 65.58 66.61 66.68 67.76 67.88 68.75 68.00 66.96 66.09 65.59 65.10 64.73 63.96 63.39 62.30 61.85 60.66
43.23 43.33 43.15 42.87 42.63 41.88 41.83 41.88 41.13 41.52 40.61 42.48 43.74 44.10 43.96 44.69 49.36 56.15 59.38 60.84 61.93 62.52 63.14 63.76 64.32 64.84 64.97 64.99 65.76 65.69 65.51 67.31 67.53 67.28 66.37 65.28 64.72 64.21 63.68 62.75 62.23 61.08 59.43
42.19 42.83 43.15 42.71 42.23 42.19 41.32 42.04 43.24 42.06 42.26 41.00 41.72 45.79 45.82 47.96 45.27 48.13 54.30 55.55 56.11 57.27 61.85 62.35 62.98 63.60 63.94 64.15 64.14 64.20 64.91 65.40 66.06 66.54 66.04 65.15 64.52 63.89 62.60 62.65 60.75 58.85 57.26
41.20 41.66 41.79 41.71 41.45 42.13 41.83 41.72 41.66 41.37 42.38 41.81 41.20 40.82 42.69 44.48 47.19 46.51 45.81 52.25 53.58 53.07 53.55 55.77 61.67 62.70 62.95 63.40 63.21 63.80 64.46 64.65 64.66 65.09 64.57 64.22 63.91 62.64 63.11 60.75 59.07 57.05 55.57
39.37 40.12 41.08 41.29 41.67 41.90 41.48 41.70 41.67 41.24 41.55 41.79 42.06 42.45 42.72 41.88 43.33 46.43 48.04 50.66 52.31 51.10 52.57 53.23 54.55 58.40 62.40 62.63 62.68 62.48 63.78 63.49 63.25 63.26 62.73 62.69 63.31 62.42 60.55 58.60 56.51 55.00 54.17
37.51 38.25 39.26 39.74 40.42 41.34 41.75 41.74 41.09 41.20 41.09 40.74 40.68 41.84 43.83 44.37 45.29 45.95 47.10 48.06 48.81 50.19 51.23 51.72 52.24 54.30 59.05 61.64 61.58 61.65 62.60 62.74 62.58 62.24 61.49 59.72 58.52 57.35 55.86 54.72 53.88 52.98 52.72
37.92 38.56 38.43 39.02 39.65 40.73 41.30 41.53 41.23 41.00 40.65 40.85 40.54 41.94 42.98 43.93 46.04 46.73 46.30 47.34 47.59 47.72 47.97 47.95 51.59 52.17 56.84 60.14 60.52 61.16 61.09 61.85 61.03 58.59 57.27 56.19 54.66 53.63 52.91 52.05 51.08 50.76 50.38
38.16 37.96 37.74 37.96 38.79 39.73 40.48 40.69 40.54 40.05 40.53 40.73 41.21 41.74 42.53 43.94 47.02 46.85 47.61 48.93 48.16 45.73 45.80 45.57 48.88 51.82 55.70 56.55 58.43 57.56 57.20 57.93 56.85 55.23 54.10 52.97 52.10 51.45 50.95 50.01 49.33 48.76 48.33
37.76 37.61 37.52 37.63 37.89 38.62 39.37 39.83 39.61 39.99 39.88 40.50 41.37 41.32 43.09 46.27 47.73 47.90 47.89 49.21 51.24 49.44 43.77 45.71 45.93 49.78 50.25 50.50 52.58 51.45 52.41 53.23 53.65 52.75 51.33 49.98 49.65 49.14 48.70 48.03 47.75 47.18 47.01
38.45 37.15 37.31 37.14 37.18 37.52 38.50 38.84 39.15 39.66 39.64 40.11 41.00 41.41 42.79 43.77 44.55 44.97 46.11 48.01 49.84 49.90 43.24 42.69 44.73 46.11 45.43 44.77 45.44 46.87 48.13 47.82 48.33 50.05 49.26 48.22 47.75 47.35 47.06 46.46 45.84 45.51 45.87
40.16 40.04 37.49 37.26 36.97 37.36 38.34 38.66 38.69 39.96 39.73 39.75 40.35 41.12 41.96 43.75 42.62 44.55 46.52 48.13 49.40 48.17 44.40 39.90 41.62 41.69 42.22 43.08 43.45 43.96 45.01 45.82 46.77 49.14 49.00 48.23 47.09 46.00 44.62 44.39 44.49 44.62 44.10
41.19 41.22 41.11 38.34 37.16 38.38 38.66 39.39 39.89 40.13 40.17 40.36 41.59 41.88 41.95 43.22 44.37 47.21 48.91 49.71 49.16 46.66 43.90 40.67 38.76 40.26 39.05 39.04 37.89 38.50 39.87 41.77 45.41 47.59 47.48 46.40 45.28 44.42 44.04 43.56 43.27 43.61 44.59
41.39 41.54 41.85 41.59 41.53 41.23 40.81 40.97 40.12 39.64 40.92 41.76 42.24 43.37 43.68 45.78 46.18 47.62 49.75 48.87 46.73 44.78 42.17 39.47 36.99 36.21 35.86 36.36 36.99 35.25 32.80 33.89 34.06 37.92 42.31 43.45 43.21 43.48 43.11 43.21 44.19 43.67 43.75
41.37 41.77 41.69 42.05 42.09 41.67 41.46 41.08 41.05 40.84 41.01 41.08 42.10 44.04 46.23 47.80 49.16 49.99 49.43 46.31 44.74 41.98 39.72 36.99 34.55 33.70 33.02 34.01 32.35 33.30 31.17 31.69 31.26 32.82 32.11 32.22 33.67 33.48 36.03 39.02 42.34 42.74 43.15
41.38 41.54 41.30 41.48 41.51 42.28 44.22 45.12 44.39 41.92 42.08 42.29 42.56 44.66 46.09 47.92 49.13 51.86 52.17 49.28 45.56 41.29 37.99 35.45 34.07 32.55 31.34 31.58 32.22 32.09 31.57 30.56 28.34 32.08 31.01 29.00 31.96 30.45 31.60 39.57 43.00 42.20 41.63
40.38 40.30 41.09 41.44 41.09 41.72 45.02 46.28 46.68 45.05 43.89 43.72 44.74 45.68 46.64 48.39 49.87 50.54 52.36 50.47 48.32 46.44 42.52 38.11 33.38 32.17 31.34 31.96 32.07 30.27 29.43 29.69 28.38 29.41 30.37 27.36 29.92 29.94 30.38 35.32 42.61 42.03 42.26
43.57 42.15 41.87 42.08 41.85 42.49 45.56 46.97 47.92 46.71 45.57 45.51 46.15 47.34 48.56 49.61 47.75 45.47 42.25 40.56 40.10 39.34 37.47 36.50 34.57 33.51 32.39 31.95 31.97 31.21 29.71 27.66 28.34 28.22 28.95 26.98 27.48 29.03 30.10 30.10 40.33 41.11 41.02
45.21 45.83 45.13 44.01 43.45 46.23 48.08 49.13 46.14 43.83 43.19 43.76 45.10 46.35 46.21 44.90 46.20 43.79 38.16 38.17 38.85 40.07 44.04 43.01 41.23 40.65 39.29 37.04 34.23 31.60 29.28 27.66 25.84 26.19 27.21 29.52 26.28 29.19 28.68 30.45 32.57 37.65 38.81
42.29 42.91 43.03 44.47 46.41 45.41 48.17 47.61 45.46 44.03 42.91 42.91 43.36 43.98 45.48 43.74 44.78 43.09 38.08 36.64 34.78 36.34 37.09 36.82 36.16 36.53 36.22 35.82 35.79 29.93 29.90 27.31 26.52 25.78 27.04 26.78 25.19 25.96 29.56 31.67 28.82 30.13 30.69

GFSMA_sfc_wetblb_231.txt.gz
Wetbulb
50.30 50.87 50.55 51.00 51.25 52.01 51.50 51.14 51.46 51.73 52.79 55.25 56.57 58.66 61.23 63.94 66.00 69.39 69.13 68.67 69.59 70.47 70.29 70.77 71.31 71.11 70.68 70.35 69.73 69.19 68.49 67.84 67.42 67.36 66.99 65.66 65.17 64.68 64.70 64.25 63.46 62.31 62.41
50.16 50.39 50.27 50.35 50.28 51.26 51.53 51.27 50.77 50.65 51.45 52.01 53.47 55.93 57.29 59.63 62.97 66.17 69.16 69.41 68.58 69.57 70.12 70.45 71.16 71.20 71.24 70.80 70.16 69.58 68.98 68.28 67.43 67.19 67.25 65.94 65.34 65.14 64.50 64.44 63.86 62.98 62.33
50.32 50.16 50.10 50.07 50.45 51.03 51.46 51.15 50.47 50.87 50.19 50.64 50.96 52.14 53.98 56.60 58.91 62.43 66.36 68.09 68.59 68.19 68.92 70.32 71.26 71.02 71.08 71.13 70.69 69.97 69.63 68.43 67.59 67.27 66.86 66.34 65.66 65.54 65.04 64.42 64.16 63.76 63.27
50.43 49.97 49.66 49.67 50.55 50.52 50.80 50.45 50.04 49.18 49.19 49.17 48.53 49.21 51.41 54.61 57.08 59.39 63.18 65.96 66.44 67.05 68.02 68.59 70.27 71.22 71.26 70.98 70.94 70.62 69.92 68.56 67.76 67.18 66.77 66.42 65.73 65.31 65.06 64.80 64.29 63.91 63.68
50.07 49.85 49.47 49.68 50.16 49.65 49.89 49.80 49.00 49.55 48.16 48.09 47.84 47.85 49.71 51.42 53.66 55.33 57.88 61.76 65.56 66.50 66.64 67.63 68.52 69.20 70.65 71.20 71.02 70.68 70.14 69.11 68.16 67.18 66.75 66.26 65.65 65.07 64.87 64.72 64.60 64.11 63.62
49.50 49.18 48.92 48.79 49.34 48.90 48.84 49.44 48.75 49.08 48.73 48.33 47.17 47.10 49.79 52.92 55.12 56.29 57.52 59.99 63.26 65.49 66.20 66.23 68.51 69.00 68.93 70.56 71.01 71.08 70.65 69.89 68.63 67.33 66.92 66.21 65.85 65.33 65.23 65.02 64.76 64.22 63.31
48.28 48.19 48.00 48.21 48.58 48.01 48.23 48.70 48.13 47.49 47.47 48.93 47.14 46.03 46.97 48.13 50.00 53.72 57.57 59.36 60.96 62.96 65.37 65.61 66.54 68.85 69.33 68.87 69.42 70.79 71.29 70.76 69.36 67.90 66.93 66.56 65.92 65.70 65.51 65.36 64.66 63.85 62.78
47.25 47.12 47.38 47.55 47.79 47.12 46.95 46.82 46.86 45.73 46.98 48.60 45.01 44.42 40.67 44.92 50.98 55.94 57.87 59.61 60.29 61.82 62.50 64.77 65.32 67.24 68.72 69.30 68.84 68.12 68.85 70.89 69.77 68.47 67.63 66.99 66.34 65.94 65.72 65.13 64.44 63.52 62.64
46.23 46.73 46.74 46.66 46.31 46.24 45.27 45.69 46.01 45.96 44.23 46.70 47.77 44.36 39.89 38.80 44.88 50.54 53.55 58.76 60.66 61.06 62.40 63.86 64.66 65.41 67.49 68.26 67.74 67.10 66.28 68.31 68.98 69.41 67.77 67.21 66.79 66.37 65.66 64.68 63.97 63.43 61.10
44.77 45.53 45.76 45.69 45.49 45.32 44.62 45.32 46.21 46.60 46.40 44.55 46.82 46.84 46.46 44.84 40.47 41.23 49.57 50.77 52.51 57.10 60.71 62.67 64.02 64.92 66.16 67.66 66.44 65.73 65.98 66.31 67.02 68.59 68.81 67.59 66.94 66.08 65.19 64.16 63.60 61.04 58.80
43.63 44.08 44.78 44.69 44.49 44.69 44.71 45.31 45.55 46.20 46.60 45.73 45.68 45.49 45.20 45.01 44.96 42.73 40.98 45.57 51.28 54.30 55.75 56.22 62.68 64.31 65.51 65.96 65.28 65.22 65.20 65.30 65.85 66.58 67.39 67.56 66.74 65.61 64.83 64.14 61.43 58.71 57.07
42.57 43.01 43.64 44.09 44.38 44.26 44.12 44.75 45.42 45.94 45.81 46.02 46.11 45.86 44.63 42.56 42.16 43.44 43.98 46.31 48.33 51.86 53.60 54.29 55.28 62.16 64.46 65.33 64.37 63.65 64.49 64.97 65.01 65.31 65.71 65.50 64.89 64.42 64.21 62.01 59.26 57.11 55.75
41.54 41.80 42.55 42.94 43.26 43.81 44.20 44.52 44.43 44.86 45.36 45.21 45.44 45.12 45.73 45.13 45.42 44.72 44.12 44.63 45.40 47.75 52.57 53.37 53.80 55.23 58.83 64.70 63.91 62.47 63.03 64.41 64.31 64.57 64.29 63.69 63.83 62.73 60.44 58.63 56.81 55.72 54.61
41.13 42.30 42.37 42.63 42.44 42.69 43.29 43.69 43.72 44.02 44.60 44.95 45.04 45.15 45.03 45.52 46.28 45.99 44.78 44.47 41.74 46.91 49.61 49.54 53.15 53.27 56.32 61.65 63.47 61.87 63.29 63.67 63.39 62.86 62.86 61.72 59.60 57.76 56.49 55.05 53.89 52.94 51.97
40.96 41.63 41.91 41.28 41.73 41.87 42.38 42.80 42.66 42.76 43.71 44.27 44.69 45.12 44.70 45.50 46.28 46.29 46.71 47.54 45.08 41.06 44.27 49.21 48.96 52.35 55.73 59.60 61.46 61.73 62.03 62.18 62.53 60.25 58.50 57.21 55.68 54.72 53.87 52.80 51.52 50.68 50.10
41.90 41.67 41.44 41.53 41.10 41.15 41.66 41.81 41.88 42.71 42.84 43.62 43.90 44.26 44.65 45.37 45.95 46.48 47.82 48.67 48.89 46.14 43.66 46.58 46.83 49.38 53.53 54.78 57.50 56.72 57.10 57.20 56.98 56.09 54.74 53.66 52.80 51.86 51.06 50.09 49.54 49.52 49.44
41.41 41.16 41.07 41.27 40.33 39.77 40.59 40.61 40.93 41.67 41.74 42.61 43.56 43.75 43.87 45.15 44.88 45.65 47.56 47.14 47.31 48.21 44.40 43.52 44.70 46.32 47.93 49.28 49.40 50.42 51.06 50.92 51.63 52.83 51.89 50.76 49.86 49.24 48.33 47.83 47.48 46.84 46.82
41.25 40.42 40.58 39.88 40.29 40.26 39.96 39.62 39.98 40.97 41.56 41.78 42.59 43.11 43.19 44.00 43.77 45.20 46.11 45.40 46.58 47.53 45.55 41.35 41.89 42.80 44.17 45.78 45.86 45.70 46.19 47.43 47.75 49.97 50.17 48.56 47.41 46.67 46.54 46.23 46.16 45.55 45.16
40.81 41.20 41.30 40.77 40.74 40.85 40.37 40.24 40.12 41.06 41.79 42.00 42.54 42.59 42.68 42.97 43.30 44.68 45.38 46.05 47.99 48.48 45.69 42.02 39.07 39.87 39.90 43.41 39.71 42.72 45.07 45.64 46.10 47.63 47.67 47.07 46.27 45.47 45.40 44.86 44.88 44.90 44.54
41.52 41.85 42.08 41.95 42.31 42.15 40.47 39.83 40.28 40.81 41.37 42.20 42.61 42.82 42.67 43.20 43.53 44.51 46.34 47.86 47.64 44.77 42.44 39.26 37.14 36.34 36.20 38.41 38.35 35.85 33.51 35.46 34.18 38.09 42.54 44.05 44.77 45.54 45.83 45.00 44.51 44.20 43.82
41.47 41.83 41.61 41.80 42.54 42.72 42.41 42.00 41.88 41.77 41.63 41.55 42.36 42.81 44.00 44.35 46.32 47.60 47.39 47.80 44.58 42.22 39.91 37.92 35.44 34.32 32.75 34.07 33.40 34.83 32.12 31.84 31.95 34.48 33.44 35.06 36.78 37.48 40.18 43.59 42.90 42.69 42.08
40.66 40.75 41.01 41.51 41.52 42.26 44.42 45.23 43.71 41.39 41.66 41.30 41.34 42.35 43.43 45.52 47.51 49.52 49.86 49.57 45.33 40.39 38.79 35.74 34.59 33.23 31.64 31.94 32.18 32.14 31.69 30.96 29.28 33.54 32.69 31.44 35.17 34.94 36.73 41.94 43.06 42.58 42.31
42.39 40.72 40.89 41.41 41.53 42.20 44.94 45.86 45.93 44.68 42.53 42.14 42.47 43.41 44.60 46.12 47.82 48.53 50.11 50.57 47.89 45.82 42.98 38.59 33.20 31.87 31.45 31.89 32.03 31.42 31.00 30.15 28.81 31.72 34.10 31.17 35.42 33.67 36.60 40.01 41.99 41.83 42.07
44.19 42.23 41.54 41.68 41.98 42.68 45.22 46.22 46.92 45.96 44.89 44.23 44.57 45.18 45.77 46.77 48.33 45.79 41.06 37.52 37.64 38.19 37.66 36.11 34.35 32.85 32.36 31.90 32.21 32.03 30.80 30.15 31.61 32.56 34.63 29.57 33.83 32.67 35.50 36.77 40.25 41.03 40.78
42.00 41.99 42.74 44.27 46.04 44.82 45.96 46.96 46.19 44.98 44.38 44.85 45.99 46.31 46.81 45.63 46.20 43.80 38.21 36.85 36.80 38.56 42.90 42.72 41.69 41.29 40.25 38.32 35.65 33.78 31.21 30.29 28.86 30.37 34.08 32.38 32.22 32.91 34.52 34.66 36.31 37.84 39.95
42.15 42.35 41.81 42.30 44.30 44.72 47.42 46.63 44.33 42.56 41.14 41.02 42.47 44.60 46.49 44.89 45.43 43.64 39.07 36.65 34.29 35.09 35.18 34.91 35.42 37.34 37.79 37.39 37.26 33.84 32.43 30.11 30.49 30.62 32.95 32.18 32.08 33.38 31.91 35.14 35.69 36.42 37.37

GFSMA_sfc_wetblb_234.txt.gz
Wetbulb
52.54 52.44 52.39 52.66 52.68 52.74 52.37 52.41 52.45 52.25 52.29 52.68 53.08 53.71 55.67 57.96 59.58 63.10 67.46 68.21 68.98 69.98 70.55 70.90 70.76 70.89 71.30 70.90 70.63 70.41 70.16 69.83 68.54 67.98 67.49 67.16 66.31 65.81 65.82 65.32 64.41 63.77 63.25
52.51 52.22 51.97 52.15 52.13 52.33 52.48 51.79 51.53 51.32 51.55 51.73 51.52 52.33 52.99 54.46 56.06 58.89 61.50 66.40 67.87 68.86 70.20 70.68 71.02 70.97 71.24 71.20 70.73 70.95 70.36 69.85 69.77 69.06 68.05 67.70 66.67 66.08 65.55 65.54 64.96 64.30 63.19
52.10 51.85 51.65 51.36 51.66 52.06 52.13 51.65 51.03 50.88 50.58 50.84 50.65 50.95 51.46 52.10 53.69 55.34 57.93 61.09 65.52 67.39 68.53 69.79 70.44 70.81 70.98 71.84 71.10 71.42 70.97 70.39 69.92 69.24 69.12 68.14 67.10 66.32 66.11 65.49 65.27 64.65 64.06
50.20 51.62 51.30 51.19 51.76 51.97 51.70 51.42 50.85 50.40 50.24 49.52 49.53 49.85 50.12 50.72 51.72 53.11 55.28 57.86 60.95 64.86 67.63 68.32 69.22 70.37 70.78 71.44 71.34 71.62 71.23 70.64 70.38 69.34 68.95 68.36 67.93 66.42 66.06 65.90 65.39 65.01 64.63
49.59 49.62 50.92 51.05 51.26 50.73 50.40 50.45 50.30 50.01 49.15 49.22 48.96 49.12 49.15 49.70 50.45 51.40 52.63 54.49 56.76 60.11 64.56 66.87 67.69 68.87 69.72 70.63 70.93 71.22 71.34 70.78 70.42 70.01 69.16 68.58 67.61 66.93 66.45 65.97 65.71 65.25 64.94
49.25 48.95 48.51 48.54 49.23 48.82 48.96 49.40 49.37 50.08 49.58 48.91 48.65 48.43 49.12 49.66 50.84 51.26 52.14 53.45 55.83 58.48 61.25 63.83 67.61 67.43 68.46 69.44 70.83 71.05 71.30 70.77 70.59 70.34 69.52 68.55 67.71 66.98 66.23 65.78 65.66 65.63 65.20
49.03 48.85 48.28 48.31 48.39 47.91 48.38 48.67 48.14 47.38 47.08 48.12 46.54 47.05 47.51 48.51 48.43 49.38 51.73 52.08 53.06 55.21 58.30 62.16 65.05 67.48 66.66 68.59 69.23 70.50 71.15 71.17 71.02 70.33 69.05 68.56 68.31 66.93 66.23 65.99 65.63 65.61 65.35
48.42 47.98 48.12 47.91 48.13 47.48 47.50 47.37 47.19 45.92 46.24 46.79 44.46 44.95 41.86 44.75 47.05 48.86 52.38 53.97 55.36 55.31 56.11 57.60 61.41 64.33 66.35 68.57 68.87 68.10 68.84 71.03 71.57 71.23 70.13 68.56 68.19 67.32 66.47 65.99 65.99 65.75 65.11
47.54 47.71 48.01 48.04 48.05 47.70 46.51 46.93 46.73 45.94 44.02 45.62 46.07 44.35 41.38 39.88 43.54 46.98 47.70 49.14 52.56 56.46 58.25 60.64 60.96 62.72 64.94 66.05 67.89 67.89 66.08 68.30 70.21 71.45 70.42 68.63 68.12 67.72 66.96 66.35 66.16 65.56 64.63
45.99 46.78 46.86 46.83 46.98 47.05 46.35 46.49 46.66 45.85 45.44 43.45 45.84 46.97 47.42 46.07 41.24 40.36 46.01 47.40 49.66 50.47 55.05 58.22 60.57 63.30 64.72 65.15 65.26 65.87 65.98 66.05 67.70 69.75 69.45 69.45 68.54 68.22 67.58 66.57 65.98 65.22 64.41
45.50 45.53 46.01 45.68 45.32 46.60 46.60 46.29 45.93 45.04 45.41 44.83 45.08 45.33 46.28 46.35 46.18 42.62 40.07 43.39 47.27 49.69 52.67 57.25 57.68 58.10 61.40 64.62 64.87 65.61 65.56 65.42 66.07 67.48 68.47 68.85 68.58 67.99 67.73 67.08 65.55 64.63 61.54
44.99 45.08 45.20 45.19 45.32 45.32 45.23 45.55 45.78 45.62 45.09 45.34 46.02 45.80 44.47 43.78 43.57 43.18 41.83 42.92 44.14 47.78 51.53 53.50 55.36 57.45 57.56 59.76 63.63 63.86 64.64 65.06 65.28 65.85 66.82 67.25 66.65 68.68 67.78 66.67 65.03 62.24 59.95
43.57 44.09 44.89 44.61 44.61 45.39 45.53 45.69 45.50 45.34 45.30 45.02 45.43 45.22 45.95 45.46 45.93 44.79 43.42 42.67 42.67 45.83 47.93 52.02 53.72 55.00 55.54 56.62 59.73 62.82 63.39 64.56 64.85 65.46 65.76 65.89 66.05 66.54 65.98 65.09 62.58 60.66 58.66
43.74 44.25 44.12 44.17 44.30 44.71 44.85 45.04 44.90 45.29 45.46 45.13 45.12 45.48 45.66 46.09 46.47 45.92 44.24 42.88 41.37 43.33 46.02 47.47 53.11 54.19 54.78 55.30 57.07 61.44 64.63 63.86 64.40 64.62 64.78 64.81 64.72 64.89 64.16 61.74 59.81 58.44 56.12
43.24 43.56 43.59 43.10 43.44 43.31 43.58 44.01 43.97 44.29 44.84 44.94 44.76 45.31 45.47 46.10 46.60 46.64 46.47 45.79 43.28 40.12 42.05 47.12 50.70 53.56 52.94 54.25 57.04 61.01 64.48 62.49 63.94 63.47 63.55 63.16 63.18 61.81 59.86 58.62 56.72 54.59 53.38
42.81 43.04 42.83 42.87 42.76 42.57 42.71 43.20 43.22 43.53 43.89 44.49 44.69 44.61 45.06 45.81 46.16 46.61 46.68 46.17 45.75 44.72 42.96 47.45 50.98 49.93 50.06 52.51 56.30 60.25 62.02 60.87 62.85 62.09 60.11 58.73 58.30 57.16 56.15 54.36 52.94 52.12 51.58
41.44 41.51 42.01 42.03 41.69 41.45 41.84 41.62 41.77 42.19 42.04 43.40 44.42 44.35 44.54 45.75 45.58 45.96 46.67 46.47 45.89 47.61 44.39 47.46 48.18 47.92 48.96 48.15 52.02 54.32 55.04 54.88 56.32 56.93 55.88 54.79 53.77 53.03 52.20 51.51 50.94 49.88 48.65
41.60 41.39 41.21 41.57 41.47 41.93 42.61 41.22 40.47 41.18 41.31 42.13 43.37 43.95 44.20 45.10 45.25 45.67 45.65 45.04 45.33 47.18 45.91 44.43 47.05 43.19 44.12 46.09 48.22 48.25 48.86 50.45 50.48 52.33 52.04 50.75 50.01 49.29 48.60 47.77 47.11 46.75 46.47
41.51 41.74 41.71 40.85 41.00 40.52 40.48 41.91 40.87 40.73 41.18 42.06 42.62 43.89 44.31 44.47 44.06 44.66 44.55 43.44 44.97 46.03 48.54 46.83 40.27 41.00 41.23 41.47 43.10 45.13 45.63 45.10 46.44 48.88 49.02 48.60 48.22 48.11 47.27 46.35 46.02 46.04 45.49
41.28 41.63 41.98 41.83 41.96 41.89 41.69 41.34 41.30 42.07 41.63 41.92 43.16 43.59 43.44 43.45 43.04 43.41 42.40 43.41 45.19 47.10 47.37 42.53 39.45 37.25 37.44 38.79 39.10 36.59 33.67 36.44 37.17 41.52 45.61 46.92 46.68 47.16 46.85 45.85 45.07 44.35 44.23
41.38 41.37 41.59 41.87 42.75 42.73 42.64 42.51 41.57 40.69 40.51 41.14 42.46 42.71 43.92 44.90 46.02 45.66 44.40 45.08 47.28 46.27 42.18 39.81 36.21 34.31 33.22 33.37 32.46 33.10 32.22 32.09 32.04 35.28 35.53 36.89 38.03 40.13 41.08 43.37 42.90 43.08 44.16
41.95 41.17 40.90 41.16 41.34 42.26 44.41 45.39 43.82 42.86 42.43 42.31 41.90 43.75 44.21 45.42 45.82 46.68 47.58 49.05 49.27 42.40 39.74 37.74 35.79 33.46 31.54 31.92 32.69 32.19 32.60 31.96 29.94 33.16 33.58 33.02 36.42 35.94 40.31 42.10 43.55 42.79 43.06
43.25 41.84 41.26 41.38 41.45 42.33 44.73 45.56 46.06 43.75 42.65 42.41 42.28 42.76 42.81 44.72 46.14 46.41 48.71 49.82 49.29 47.41 43.66 38.97 33.62 32.40 31.69 31.78 32.14 31.68 31.31 30.58 29.99 32.28 34.13 32.70 37.03 36.58 39.26 41.43 42.04 42.15 42.10
41.85 42.10 43.97 42.05 42.20 42.76 44.82 46.09 46.34 45.72 44.29 42.95 43.27 43.37 43.85 44.87 46.63 41.34 38.94 37.02 36.24 36.90 36.28 34.98 33.35 32.14 32.14 32.14 32.14 32.30 31.68 31.74 32.61 34.05 36.06 31.64 35.66 34.75 37.40 38.61 41.44 41.55 41.67
41.27 41.72 42.22 43.38 42.96 43.50 46.02 47.04 45.90 45.39 45.24 44.70 44.77 45.65 45.83 46.21 45.66 43.31 37.90 36.38 35.41 36.45 41.96 41.93 41.04 41.23 40.60 38.92 36.72 35.13 33.04 32.16 30.67 32.29 35.28 33.75 34.28 34.31 36.50 36.77 37.87 39.57 39.88
38.08 38.03 41.26 41.89 43.48 41.24 44.57 44.79 41.90 40.08 40.41 42.03 44.03 46.03 46.80 45.26 45.34 43.31 38.38 36.95 34.42 35.54 36.52 36.19 36.73 38.19 38.95 38.65 38.59 35.85 34.96 32.07 31.55 30.93 35.15 33.53 34.34 35.96 32.75 36.58 37.66 39.08 39.67